Regional Weather Roundup
Issued by NWS Sioux Falls, SD

Home | Current Version | Previous Version | Graphics & Text | Print | Product List | Glossary Off
Versions: 1 2 3 4 5 6 7 8 9 10 11 12 13 14 15 16 17 18 19 20 21 22 23 24 25 26 27 28 29 30 31 32 33 34 35 36 37 38 39 40 41 42 43 44 45 46 47 48 49 50

000
ASUS43 KFSD 291110
RWRFSD

WEATHER ROUNDUP FOR SE SOUTH DAKOTA/SW MINNESOTA/NW IOWA
NATIONAL WEATHER SERVICE SIOUX FALLS SD
600 AM CDT SUN MAR 29 2015

NOTE: "FAIR" INDICATES FEW OR NO CLOUDS BELOW 12,000 FEET WITH NO
SIGNIFICANT WEATHER AND OR OBSTRUCTIONS TO VISIBILITY.


SDZ038>040-050-052>070-291200-
SOUTHEAST SOUTH DAKOTA

CITY           SKY/WX    TMP DP  RH WIND       PRES   REMARKS
CHAMBERLAIN    MOCLDY    49  33  54 W29G35    29.79R
HURON          PTCLDY    45  35  68 W13       29.69R
MADISON        FAIR      43  43 100 W17G24    29.67S
MITCHELL       CLEAR     47  37  68 W12       29.74R
SIOUX FALLS    CLEAR     44  37  76 W12       29.70R
WINNER         FAIR      52  30  43 W38G47    29.83R
YANKTON        CLEAR     52  39  62 W16G23    29.77R
$$

MNZ071-072-080-081-089-090-097-098-291200-
SOUTHWEST MINNESOTA

CITY           SKY/WX    TMP DP  RH WIND       PRES   REMARKS
FAIRMONT       CLOUDY    36  28  75 S20       29.71S
JACKSON        PTCLDY    37  32  81 S16G25    29.69F
LUVERNE        CLEAR     39  34  81 W13       29.68S
MARSHALL       CLEAR     43  30  61 W20       29.61F
MONTEVIDEO     CLOUDY    43  37  81 W12       29.59F
PIPESTONE      CLEAR     39  34  81 W8        29.65F
REDWOOD FALLS  MOCLDY    40  33  76 S17       29.62F
TRACY          PTCLDY    40  34  77 SW25G31   29.62F
WINDOM         PTCLDY    37  34  87 S15G22    29.67S
WORTHINGTON    PTCLDY    39  32  75 SW18G25   29.69S
$$

IAZ001>003-012>014-020>022-031-032-NEZ013-014-SDZ071-291200-
NORTHWEST IOWA

CITY           SKY/WX    TMP DP  RH WIND       PRES   REMARKS
CHEROKEE       MOCLDY    41  35  79 SW16G23   29.75F
DENISON        CLOUDY    39  36  87 SW15G24   29.80F
ESTHERVILLE    MOCLDY    37  32  82 S22G28    29.70F
LE MARS        PTCLDY    43  36  75 SW12      29.76R
ORANGE CITY    PTCLDY    43  36  75 SW21G28   29.73R
SHELDON        PTCLDY    41  36  81 SW18G25   29.69R
SIOUX CITY     PTCLDY    44  34  67 SW8       29.80R
SPENCER        PTCLDY    39  33  79 S13G21    29.72S
STORM LAKE     CLOUDY    37  34  87 SW21G28   29.76S
$$

ABBREVIATIONS USED IN REMARKS
   TC - TEMPERATURE IN CELSIUS
  WCI - WIND CHILL INDEX
   HX - HEAT INDEX
  VSB - VISIBILITY




USA.gov is the U.S. government's official web portal to all federal, state and local government web resources and services.